Time,TemperatureF,DewpointF,PressureIn,WindDirection,WindDirectionDegrees,WindSpeedMPH,WindSpeedGustMPH,Humidity,HourlyPrecipIn,Conditions,Clouds,dailyrainin,SoftwareType,DateUTC
2013-03-31 00:02:00,48.0,-99.9,29.87,SW,229,0.0,6.0,57,0.00,,,0.00,,2013-03-31 04:02:00,
2013-03-31 00:13:00,48.0,34.0,29.87,SW,229,0.0,6.0,57,0.00,,,0.00,,2013-03-31 04:13:00,
2013-03-31 00:23:00,48.0,34.0,29.86,SW,229,0.0,2.0,58,0.00,,,0.00,,2013-03-31 04:23:00,
2013-03-31 00:32:00,48.0,35.0,29.85,SW,229,0.0,2.0,61,0.00,,,0.00,,2013-03-31 04:32:00,
2013-03-31 00:42:00,48.0,35.0,29.85,SW,229,0.0,2.0,61,0.00,,,0.00,,2013-03-31 04:42:00,
2013-03-31 00:52:00,47.0,35.0,29.85,SW,229,0.0,2.0,63,0.00,,,0.00,,2013-03-31 04:52:00,
2013-03-31 01:02:00,47.0,35.0,29.85,SW,229,0.0,2.0,64,0.00,,,0.00,,2013-03-31 05:02:00,
2013-03-31 01:12:00,47.0,35.0,29.85,SW,229,0.0,2.0,64,0.00,,,0.00,,2013-03-31 05:12:00,
2013-03-31 01:22:00,47.0,35.0,29.84,SW,229,0.0,0.0,64,0.00,,,0.00,,2013-03-31 05:22:00,
2013-03-31 01:32:00,46.0,35.0,29.83,SW,229,0.0,1.0,66,0.00,,,0.00,,2013-03-31 05:32:00,
2013-03-31 01:42:00,46.0,35.0,29.83,SW,229,0.0,1.0,66,0.00,,,0.00,,2013-03-31 05:42:00,
2013-03-31 01:53:00,46.0,35.0,29.83,SW,229,0.0,1.0,66,0.00,,,0.00,,2013-03-31 05:53:00,
2013-03-31 02:02:00,46.0,35.0,29.82,SW,229,0.0,1.0,66,0.00,,,0.00,,2013-03-31 06:02:00,
2013-03-31 02:12:00,46.0,35.0,29.82,SW,229,0.0,1.0,66,0.00,,,0.00,,2013-03-31 06:12:00,
2013-03-31 02:22:00,46.0,35.0,29.81,SW,229,0.0,2.0,66,0.00,,,0.00,,2013-03-31 06:22:00,
2013-03-31 02:32:00,46.0,35.0,29.80,SW,229,0.0,1.0,66,0.00,,,0.00,,2013-03-31 06:32:00,
2013-03-31 02:42:00,46.0,35.0,29.80,SW,229,0.0,1.0,66,0.00,,,0.00,,2013-03-31 06:42:00,
2013-03-31 02:52:00,46.0,36.0,29.79,SW,229,0.0,1.0,67,0.00,,,0.00,,2013-03-31 06:52:00,
2013-03-31 03:02:00,46.0,36.0,29.79,SW,229,0.0,0.0,68,0.00,,,0.00,,2013-03-31 07:02:00,
2013-03-31 03:12:00,46.0,36.0,29.79,SW,229,0.0,0.0,68,0.00,,,0.00,,2013-03-31 07:12:00,
2013-03-31 03:22:00,46.0,35.0,29.78,SW,229,0.0,2.0,66,0.00,,,0.00,,2013-03-31 07:22:00,
2013-03-31 03:42:00,46.0,35.0,29.77,SW,229,0.0,1.0,66,0.00,,,0.00,,2013-03-31 07:42:00,
2013-03-31 03:53:00,46.0,35.0,29.77,SW,229,0.0,2.0,65,0.00,,,0.00,,2013-03-31 07:53:00,
2013-03-31 04:02:00,46.0,35.0,29.76,SW,229,0.0,2.0,66,0.00,,,0.00,,2013-03-31 08:02:00,
2013-03-31 04:12:00,46.0,35.0,29.76,SW,229,0.0,2.0,66,0.00,,,0.00,,2013-03-31 08:12:00,
2013-03-31 04:22:00,46.0,35.0,29.75,SW,229,0.0,1.0,66,0.00,,,0.00,,2013-03-31 08:22:00,
2013-03-31 04:32:00,46.0,36.0,29.75,West,260,1.0,4.0,67,0.00,,,0.00,,2013-03-31 08:32:00,
2013-03-31 04:42:00,46.0,36.0,29.75,West,260,1.0,4.0,67,0.00,,,0.00,,2013-03-31 08:42:00,
2013-03-31 04:52:00,46.0,37.0,29.74,WSW,257,0.0,4.0,70,0.00,,,0.00,,2013-03-31 08:52:00,
2013-03-31 05:02:00,46.0,37.0,29.74,SW,229,0.0,2.0,70,0.00,,,0.00,,2013-03-31 09:02:00,
2013-03-31 05:12:00,46.0,37.0,29.74,SW,229,0.0,2.0,70,0.00,,,0.00,,2013-03-31 09:12:00,
2013-03-31 05:22:00,46.0,37.0,29.74,WNW,298,0.0,4.0,70,0.00,,,0.00,,2013-03-31 09:22:00,
2013-03-31 05:33:00,46.0,37.0,29.73,SW,236,0.0,7.0,71,0.00,,,0.00,,2013-03-31 09:33:00,
2013-03-31 05:42:00,46.0,37.0,29.73,SW,236,0.0,7.0,71,0.00,,,0.00,,2013-03-31 09:42:00,
2013-03-31 05:53:00,46.0,39.0,29.73,West,272,0.0,6.0,75,0.00,,,0.00,,2013-03-31 09:53:00,
2013-03-31 06:03:00,45.0,39.0,29.72,NW,312,2.0,6.0,79,0.00,,,0.00,,2013-03-31 10:03:00,
2013-03-31 06:13:00,45.0,39.0,29.72,NW,312,2.0,6.0,79,0.00,,,0.00,,2013-03-31 10:13:00,
2013-03-31 06:23:00,45.0,40.0,29.72,WNW,291,0.0,6.0,84,0.00,,,0.00,,2013-03-31 10:23:00,
2013-03-31 06:32:00,44.0,40.0,29.72,WNW,291,1.0,8.0,87,0.00,,,0.00,,2013-03-31 10:32:00,
2013-03-31 06:42:00,44.0,40.0,29.72,WNW,291,1.0,8.0,87,0.00,,,0.00,,2013-03-31 10:42:00,
2013-03-31 06:53:00,44.0,41.0,29.72,WNW,289,0.0,6.0,90,0.00,,,0.00,,2013-03-31 10:53:00,
2013-03-31 07:02:00,44.0,42.0,29.72,NW,308,0.0,2.0,92,0.00,,,0.00,,2013-03-31 11:02:00,
2013-03-31 07:12:00,44.0,42.0,29.72,NW,308,0.0,2.0,92,0.00,,,0.00,,2013-03-31 11:12:00,
2013-03-31 07:23:00,44.0,42.0,29.72,NW,308,0.0,2.0,93,0.00,,,0.00,,2013-03-31 11:23:00,
2013-03-31 07:32:00,44.0,42.0,29.72,NW,308,0.0,2.0,94,0.00,,,0.00,,2013-03-31 11:32:00,
2013-03-31 07:42:00,44.0,42.0,29.72,NW,308,0.0,2.0,94,0.00,,,0.00,,2013-03-31 11:42:00,
2013-03-31 07:52:00,44.0,43.0,29.72,NW,308,0.0,2.0,95,0.00,,,0.00,,2013-03-31 11:52:00,
2013-03-31 08:02:00,44.0,43.0,29.72,NW,308,0.0,1.0,96,0.01,,,0.01,,2013-03-31 12:02:00,
2013-03-31 08:12:00,44.0,43.0,29.72,NW,308,0.0,1.0,96,0.01,,,0.01,,2013-03-31 12:12:00,
2013-03-31 08:22:00,44.0,43.0,29.72,NW,325,0.0,6.0,96,-99.99,,,-99.99,,2013-03-31 12:22:00,
2013-03-31 08:33:00,44.0,43.0,29.72,WNW,296,0.0,6.0,96,-99.99,,,-99.99,,2013-03-31 12:33:00,
2013-03-31 08:42:00,44.0,43.0,29.72,WNW,296,0.0,6.0,96,-99.99,,,-99.99,,2013-03-31 12:42:00,
2013-03-31 08:53:00,44.0,43.0,29.72,NNW,332,2.0,9.0,96,-99.99,,,-99.99,,2013-03-31 12:53:00,
2013-03-31 09:02:00,44.0,43.0,29.72,NW,319,2.0,7.0,96,-99.99,,,-99.99,,2013-03-31 13:02:00,
2013-03-31 09:12:00,44.0,43.0,29.72,NW,319,2.0,7.0,96,-99.99,,,-99.99,,2013-03-31 13:12:00,
2013-03-31 09:22:00,44.0,43.0,29.72,NW,315,2.0,4.0,96,0.00,,,-99.99,,2013-03-31 13:22:00,
2013-03-31 09:32:00,44.0,43.0,29.72,NW,325,1.0,8.0,96,0.00,,,-99.99,,2013-03-31 13:32:00,
2013-03-31 09:42:00,44.0,43.0,29.72,NW,325,1.0,8.0,96,0.00,,,-99.99,,2013-03-31 13:42:00,
2013-03-31 09:53:00,44.0,43.0,29.73,NNW,328,0.0,6.0,95,0.00,,,-99.99,,2013-03-31 13:53:00,
2013-03-31 10:02:00,44.0,43.0,29.72,North,360,2.0,7.0,95,0.00,,,-99.99,,2013-03-31 14:02:00,
2013-03-31 10:12:00,44.0,43.0,29.72,North,360,2.0,7.0,95,0.00,,,-99.99,,2013-03-31 14:12:00,
2013-03-31 10:22:00,44.0,42.0,29.72,NW,309,2.0,13.0,93,0.00,,,-99.99,,2013-03-31 14:22:00,
2013-03-31 10:32:00,45.0,42.0,29.72,West,264,2.0,9.0,90,0.00,,,-99.99,,2013-03-31 14:32:00,
2013-03-31 10:42:00,45.0,42.0,29.72,West,264,2.0,9.0,90,0.00,,,-99.99,,2013-03-31 14:42:00,
2013-03-31 10:52:00,46.0,42.0,29.72,WNW,282,4.0,10.0,85,0.00,,,-99.99,,2013-03-31 14:52:00,
2013-03-31 11:02:00,47.0,40.0,29.72,WNW,292,6.0,14.0,77,0.00,,,-99.99,,2013-03-31 15:02:00,
2013-03-31 11:12:00,47.0,40.0,29.72,WNW,292,6.0,14.0,77,0.00,,,-99.99,,2013-03-31 15:12:00,
2013-03-31 11:22:00,47.0,40.0,29.72,WNW,288,1.0,10.0,76,0.00,,,-99.99,,2013-03-31 15:22:00,
2013-03-31 11:33:00,49.0,40.0,29.72,NW,319,4.0,11.0,72,0.00,,,-99.99,,2013-03-31 15:33:00,
2013-03-31 11:43:00,49.0,40.0,29.72,NW,319,4.0,11.0,72,0.00,,,-99.99,,2013-03-31 15:43:00,
2013-03-31 11:54:00,49.0,40.0,29.72,WNW,302,4.0,10.0,71,0.00,,,-99.99,,2013-03-31 15:54:00,
2013-03-31 12:03:00,50.0,40.0,29.72,NNW,340,3.0,10.0,68,0.00,,,-99.99,,2013-03-31 16:03:00,
2013-03-31 12:13:00,50.0,40.0,29.72,NNW,340,3.0,10.0,68,0.00,,,-99.99,,2013-03-31 16:13:00,
2013-03-31 12:23:00,51.0,40.0,29.72,WNW,299,1.0,10.0,67,0.00,,,-99.99,,2013-03-31 16:23:00,
2013-03-31 12:42:00,52.0,40.0,29.71,West,277,1.0,10.0,64,0.00,,,-99.99,,2013-03-31 16:42:00,
2013-03-31 12:53:00,53.0,40.0,29.71,NW,312,0.0,10.0,61,0.00,,,-99.99,,2013-03-31 16:53:00,
2013-03-31 13:03:00,54.0,39.0,29.71,North,359,1.0,9.0,57,0.00,,,-99.99,,2013-03-31 17:03:00,
2013-03-31 13:12:00,54.0,39.0,29.71,North,359,1.0,9.0,57,0.00,,,-99.99,,2013-03-31 17:12:00,
2013-03-31 13:22:00,54.0,36.0,29.70,WNW,282,3.0,14.0,50,0.00,,,-99.99,,2013-03-31 17:22:00,
2013-03-31 13:32:00,55.0,36.0,29.70,WNW,296,7.0,16.0,49,0.00,,,-99.99,,2013-03-31 17:32:00,
2013-03-31 13:42:00,55.0,36.0,29.70,WNW,296,7.0,16.0,49,0.00,,,-99.99,,2013-03-31 17:42:00,
2013-03-31 13:52:00,56.0,35.0,29.70,West,268,5.0,10.0,45,0.00,,,-99.99,,2013-03-31 17:52:00,
2013-03-31 14:02:00,56.0,34.0,29.69,NW,309,1.0,16.0,44,0.00,,,-99.99,,2013-03-31 18:02:00,
2013-03-31 14:12:00,56.0,34.0,29.69,NW,309,1.0,16.0,44,0.00,,,-99.99,,2013-03-31 18:12:00,
2013-03-31 14:22:00,57.0,33.0,29.68,NW,312,4.0,13.0,40,0.00,,,-99.99,,2013-03-31 18:22:00,
2013-03-31 14:32:00,57.0,32.0,29.68,North,360,3.0,17.0,39,0.00,,,-99.99,,2013-03-31 18:32:00,
2013-03-31 14:42:00,57.0,32.0,29.68,North,360,3.0,17.0,39,0.00,,,-99.99,,2013-03-31 18:42:00,
2013-03-31 14:53:00,58.0,33.0,29.68,West,263,2.0,15.0,38,0.00,,,-99.99,,2013-03-31 18:53:00,
2013-03-31 15:03:00,57.0,34.0,29.67,WNW,298,6.0,20.0,41,0.00,,,-99.99,,2013-03-31 19:03:00,
2013-03-31 15:12:00,57.0,34.0,29.67,WNW,298,6.0,20.0,41,0.00,,,-99.99,,2013-03-31 19:12:00,
2013-03-31 15:22:00,58.0,36.0,29.67,NW,306,6.0,20.0,43,0.00,,,-99.99,,2013-03-31 19:22:00,
2013-03-31 15:32:00,57.0,35.0,29.68,NW,304,4.0,17.0,43,0.00,,,-99.99,,2013-03-31 19:32:00,
2013-03-31 15:42:00,57.0,35.0,29.68,NW,304,4.0,17.0,43,0.00,,,-99.99,,2013-03-31 19:42:00,
2013-03-31 15:54:00,58.0,36.0,29.67,WNW,302,4.0,13.0,43,0.00,,,-99.99,,2013-03-31 19:54:00,
2013-03-31 16:02:00,57.0,35.0,29.66,WNW,296,4.0,13.0,43,0.00,,,-99.99,,2013-03-31 20:02:00,
2013-03-31 16:12:00,57.0,35.0,29.66,WNW,296,4.0,13.0,43,0.00,,,-99.99,,2013-03-31 20:12:00,
2013-03-31 16:22:00,58.0,36.0,29.66,North,359,4.0,17.0,44,0.00,,,-99.99,,2013-03-31 20:22:00,
2013-03-31 16:33:00,57.0,36.0,29.66,NW,315,3.0,16.0,45,0.00,,,-99.99,,2013-03-31 20:33:00,
2013-03-31 16:43:00,57.0,36.0,29.66,NW,315,3.0,16.0,45,0.00,,,-99.99,,2013-03-31 20:43:00,
2013-03-31 16:53:00,58.0,35.0,29.65,WNW,287,4.0,14.0,42,0.00,,,-99.99,,2013-03-31 20:53:00,
2013-03-31 17:02:00,57.0,36.0,29.65,WSW,244,8.0,13.0,45,0.00,,,-99.99,,2013-03-31 21:02:00,
2013-03-31 17:12:00,57.0,36.0,29.65,WSW,244,8.0,13.0,45,0.00,,,-99.99,,2013-03-31 21:12:00,
2013-03-31 17:22:00,57.0,36.0,29.65,WNW,295,1.0,10.0,46,0.00,,,-99.99,,2013-03-31 21:22:00,
2013-03-31 17:33:00,57.0,34.0,29.64,North,4,7.0,13.0,42,0.00,,,-99.99,,2013-03-31 21:33:00,
2013-03-31 17:43:00,57.0,34.0,29.64,North,4,7.0,13.0,42,0.00,,,-99.99,,2013-03-31 21:43:00,
2013-03-31 17:54:00,58.0,34.0,29.64,WSW,256,9.0,20.0,41,0.00,,,-99.99,,2013-03-31 21:54:00,
2013-03-31 18:03:00,57.0,35.0,29.65,North,354,9.0,18.0,43,0.00,,,-99.99,,2013-03-31 22:03:00,
2013-03-31 18:13:00,57.0,35.0,29.65,North,354,9.0,18.0,43,0.00,,,-99.99,,2013-03-31 22:13:00,
2013-03-31 18:23:00,57.0,36.0,29.65,WNW,287,2.0,17.0,45,0.00,,,-99.99,,2013-03-31 22:23:00,
2013-03-31 18:33:00,55.0,35.0,29.65,North,7,1.0,20.0,46,0.00,,,-99.99,,2013-03-31 22:33:00,
2013-03-31 18:42:00,55.0,35.0,29.65,North,7,1.0,20.0,46,0.00,,,-99.99,,2013-03-31 22:42:00,
2013-03-31 18:53:00,55.0,35.0,29.65,NW,311,2.0,21.0,46,0.00,,,-99.99,,2013-03-31 22:53:00,
2013-03-31 19:03:00,55.0,35.0,29.66,North,10,3.0,11.0,47,0.00,,,-99.99,,2013-03-31 23:03:00,
2013-03-31 19:13:00,55.0,35.0,29.66,North,10,3.0,11.0,47,0.00,,,-99.99,,2013-03-31 23:13:00,
2013-03-31 19:22:00,53.0,34.0,29.66,North,360,2.0,9.0,48,0.00,,,-99.99,,2013-03-31 23:22:00,
2013-03-31 19:32:00,52.0,32.0,29.67,NNW,344,2.0,9.0,47,0.00,,,-99.99,,2013-03-31 23:32:00,
2013-03-31 19:42:00,52.0,32.0,29.67,NNW,344,2.0,9.0,47,0.00,,,-99.99,,2013-03-31 23:42:00,
2013-03-31 19:53:00,50.0,31.0,29.68,NNW,346,2.0,16.0,47,0.00,,,-99.99,,2013-03-31 23:53:00,
2013-03-31 20:02:00,49.0,32.0,29.69,West,278,4.0,10.0,51,0.00,,,-99.99,,2013-04-01 00:02:00,
2013-03-31 20:12:00,49.0,32.0,29.69,West,278,4.0,10.0,51,0.00,,,-99.99,,2013-04-01 00:12:00,
2013-03-31 20:22:00,46.0,32.0,29.70,WNW,294,4.0,13.0,59,0.00,,,-99.99,,2013-04-01 00:22:00,
2013-03-31 20:32:00,45.0,34.0,29.72,NW,306,3.0,16.0,66,0.00,,,-99.99,,2013-04-01 00:32:00,
2013-03-31 20:42:00,45.0,34.0,29.72,NW,306,3.0,16.0,66,0.00,,,-99.99,,2013-04-01 00:42:00,
2013-03-31 20:53:00,43.0,33.0,29.73,NE,47,3.0,11.0,68,0.00,,,-99.99,,2013-04-01 00:53:00,
2013-03-31 21:02:00,42.0,32.0,29.74,NNE,17,4.0,15.0,68,0.00,,,-99.99,,2013-04-01 01:02:00,
2013-03-31 21:12:00,42.0,32.0,29.74,NNE,17,4.0,15.0,68,0.00,,,-99.99,,2013-04-01 01:12:00,
2013-03-31 21:22:00,41.0,32.0,29.75,NNW,344,0.0,15.0,69,0.00,,,-99.99,,2013-04-01 01:22:00,
2013-03-31 21:32:00,40.0,30.0,29.75,NW,304,3.0,10.0,67,0.00,,,-99.99,,2013-04-01 01:32:00,
2013-03-31 21:42:00,40.0,30.0,29.75,NW,304,3.0,10.0,67,0.00,,,-99.99,,2013-04-01 01:42:00,
2013-03-31 21:53:00,40.0,28.0,29.75,North,350,4.0,14.0,63,0.00,,,-99.99,,2013-04-01 01:53:00,
2013-03-31 22:02:00,40.0,28.0,29.75,North,350,1.0,8.0,63,0.00,,,-99.99,,2013-04-01 02:02:00,
2013-03-31 22:12:00,40.0,28.0,29.75,North,350,1.0,8.0,63,0.00,,,-99.99,,2013-04-01 02:12:00,
2013-03-31 22:22:00,40.0,28.0,29.76,NNE,14,3.0,13.0,61,0.00,,,-99.99,,2013-04-01 02:22:00,
2013-03-31 22:32:00,40.0,28.0,29.76,WSW,251,4.0,14.0,61,0.00,,,-99.99,,2013-04-01 02:32:00,
2013-03-31 22:42:00,40.0,28.0,29.76,WSW,251,4.0,14.0,61,0.00,,,-99.99,,2013-04-01 02:42:00,
2013-03-31 22:53:00,40.0,28.0,29.76,North,360,3.0,9.0,61,0.00,,,-99.99,,2013-04-01 02:53:00,
2013-03-31 23:02:00,39.0,27.0,29.77,West,281,1.0,13.0,62,0.00,,,-99.99,,2013-04-01 03:02:00,
2013-03-31 23:12:00,39.0,27.0,29.77,West,281,1.0,13.0,62,0.00,,,-99.99,,2013-04-01 03:12:00,
2013-03-31 23:22:00,39.0,28.0,29.77,NW,326,0.0,6.0,64,0.00,,,-99.99,,2013-04-01 03:22:00,
2013-03-31 23:34:00,39.0,29.0,29.78,NNW,333,1.0,8.0,66,0.00,,,-99.99,,2013-04-01 03:34:00,
2013-03-31 23:43:00,39.0,29.0,29.78,NNW,333,1.0,8.0,66,0.00,,,-99.99,,2013-04-01 03:43:00,
2013-03-31 23:53:00,39.0,29.0,29.78,NW,311,3.0,13.0,67,0.00,,,-99.99,,2013-04-01 03:53:00,